Location: Lower Kingswood
(51.2667°N, 0.2167°W)
Time: 11:29:09
(UTC+00:00)

USA 215 - Pass Details

Date: 26 September 2023
Orbit: 1098 x 1109 km, 123.0° (Epoch: 06 December)

Event Time Altitude Azimuth Distance (km) Brightness Sun altitude
Rises 01:42:23 0° 114° (ESE) 3,907 6.3 -34.7°
Reaches altitude 10° 01:44:51 10° 114° (ESE) 2,952 5.6 -34.5°
Enters shadow 01:48:22 36° 113° (ESE) 1,681 4.2 -34.2°
